Location: La Brionne
(46.1728°N, 1.7849°E)
Time: 19:59:24
(UTC+00:00)

USA 267 - Pass Details

Date: 26 October 2021
Orbit: 1101 x 1107 km, 123.0° (Epoch: 27 November)

Event Time Altitude Azimuth Distance (km) Brightness Sun altitude
Exits shadow 20:01:04 11° 197° (SSW) 2,846 5.4 -33.8°
Maximum altitude 20:05:03 19° 238° (WSW) 2,346 5.3 -34.5°
Drops below altitude 10° 20:09:30 10° 281° (W) 2,960 6.3 -35.2°
Sets 20:12:51 0° 299° (WNW) 3,922 7.1 -35.7°
